[[{"header":{"parameterUnit":"m.s-1","parameterCategory":1,"la1":30.2991,"la2":30.254,"lo1":-89.0895,"lo2":-89.0444,"dy":0.0017,"dx":0.0017,"nx":28,"ny":28,"refTime":"2025-12-06T03:00:00:Z","depth":0,"parameterNumber":2,"parameterNumberName":"U-component_of_WINDS"},"data":[0,0,0,0,0,0,0,0,0,0,0,0,0,0,0,0,0,0,0,0,0,0,0,0,0,0,0,0,0,0,0,0,0,0,0,0,0,0,0,0,0,0,0,0,0,0,0,0,0,0,0,0,0,0,0,0,0,0,-3.556,-3.5559,0,-3.5526,-3.5525,-3.5525,-3.5384,-3.5381,-3.5378,-3.5375,-3.5343,-3.5345,-3.5347,0,0,0,0,0,0,0,0,0,0,0,0,0,-3.5505,-3.5507,-3.556,-3.5559,-3.5559,-3.5526,-3.5525,-3.5525,-3.5385,-3.5381,-3.5377,-3.5373,-3.5342,-3.5344,-3.5347,0,0,0,0,0,0,0,0,0,0,0,0,0,-3.5506,-3.5508,-3.556,-3.5485,-3.5478,-3.5526,-3.5525,-3.5525,-3.5386,-3.5381,-3.5376,-3.5371,-3.5341,-3.5344,-3.5347,-3.5466,0,0,-3.5357,-3.5359,0,0,0,0,0,0,0,0,-3.5506,-3.5508,-3.5496,-3.549,-3.5482,-3.5454,-3.5494,-3.5505,-3.5387,-3.5421,-3.5374,-3.5369,-3.5384,-3.5383,-3.5388,-3.5464,-3.5463,-3.5358,-3.536,-3.5361,-3.5362,0,0,0,0,0,0,0,-3.5506,-3.5509,-3.5546,-3.5496,-3.5488,-3.5454,-3.5448,-3.5496,-3.543,-3.5417,-3.5407,-3.5405,-3.5379,-3.5385,-3.5386,-3.5463,-3.5358,-3.5361,-3.5363,-3.5364,-3.5635,-3.564,0,0,0,0,0,0,-3.5517,-3.551,-3.5547,-3.5545,-3.5482,-3.5459,-3.5453,-3.5468,-3.5429,-3.5419,-3.5409,-3.5398,-3.5382,-3.5382,-3.5384,-3.552,-3.5361,-3.5364,-3.5366,-3.563,-3.5636,-3.5642,0,0,0,0,0,0,-3.5516,-3.5521,-3.5549,-3.5525,-3.5526,-3.5465,-3.5483,-3.547,-3.5476,-3.5423,-3.5411,-3.5427,-3.5378,-3.538,-3.5446,-3.5517,-3.5366,-3.5369,-3.5623,-3.5632,-3.5639,-3.5794,0,0,0,0,0,0,-3.5515,-3.5522,-3.5566,-3.5527,-3.5528,-3.5611,-3.5488,-3.5473,-3.5482,-3.5467,-3.5437,-3.5427,-3.5374,-3.5442,-3.545,-3.5519,-3.5371,-3.5617,-3.5627,-3.5636,-3.5782,-3.5806,-3.5826,0,0,0,0,0,-3.5514,-3.5611,-3.5569,-3.5574,-3.5581,-3.5616,-3.5616,-3.5553,-3.5488,-3.5532,-3.5498,-3.5428,-3.5509,-3.545,-3.5458,-3.5529,-3.5612,-3.5624,-3.5636,-3.5772,-3.5801,-3.5826,0,0,0,0,0,0,-3.5661,-3.5605,-3.5557,-3.5645,-3.5636,-3.5592,-3.5645,-3.5586,-3.5596,-3.5582,-3.5504,-3.5498,-3.5576,-3.5559,-3.5495,-3.5642,-3.5548,-3.5562,-3.565,-3.5677,-3.5699,-3.5701,-3.5374,0,0,0,0,0,-3.5704,-3.5736,-3.5685,-3.5768,-3.5766,-3.5707,-3.5719,-3.5671,-3.5659,-3.5655,-3.5626,-3.5618,-3.5641,-3.5658,-3.5677,-3.5779,-3.577,-3.5832,-3.5854,-3.5872,-3.5885,-3.5938,-3.5964,-3.568,-3.568,-3.568,0,0,-3.5793,-3.5766,-3.5791,-3.5797,-3.5784,-3.582,-3.5704,-3.5747,-3.5773,-3.5662,-3.5722,-3.5702,-3.5687,-3.5772,-3.5808,-3.576,-3.5962,-3.5887,-3.5902,-3.5905,-3.5953,-3.598,-3.6004,-3.5688,-3.5687,-3.5685,0,0,-3.5972,-3.5955,-3.6021,-3.6011,-3.5993,-3.5953,-3.597,-3.5935,-3.5916,-3.5976,-3.5893,-3.5923,-3.5965,-3.5958,-3.596,-3.6138,-3.6074,-3.6146,-3.6262,-3.6314,-3.6337,-3.6356,-3.6419,-3.6443,-3.6159,-3.616,-3.616,0,-3.6085,-3.6134,-3.6064,-3.6111,-3.6117,-3.6017,-3.6084,-3.6078,-3.6068,-3.6074,-3.602,-3.6071,-3.6054,-3.6136,-3.618,-3.6185,-3.6201,-3.6149,-3.6339,-3.6358,-3.6375,-3.6434,-3.6458,-3.6168,-3.6167,-3.6167,-3.6166,0,-3.6273,-3.6309,-3.6365,-3.6356,-3.6368,-3.6426,-3.6365,-3.6385,-3.6337,-3.6303,-3.6365,-3.6342,-3.6354,-3.637,-3.6323,-3.6446,-3.6417,-3.6353,-3.6257,-3.6412,-3.6466,-3.6489,-3.6181,-3.6178,-3.6175,-3.6173,0,0,-3.6544,-3.6496,-3.6518,-3.6512,-3.6486,-3.6512,-3.6566,-3.6577,-3.6596,-3.6593,-3.6635,-3.6674,-3.6614,-3.6616,-3.6568,-3.6614,-3.6756,-3.6544,-3.6542,-3.6584,-3.689,-3.6938,-3.6966,-3.6714,-3.6718,-3.6721,-3.6891,0,-3.6715,-3.6802,-3.674,-3.6838,-3.687,-3.6777,-3.6823,-3.6812,-3.6783,-3.6806,-3.6773,-3.6801,-3.6721,-3.6721,-3.6763,-3.673,-3.6817,-3.6717,-3.6754,-3.6756,-3.6759,-3.6994,-3.7045,-3.7206,-3.6912,-3.6916,-3.6918,0,-3.6925,-3.693,-3.7031,-3.6997,-3.7009,-3.7052,-3.7056,-3.708,-3.7067,-3.7041,-3.7045,-3.6985,-3.7036,-3.6943,-3.7012,-3.6946,-3.6957,-3.6944,-3.6948,-3.6949,-3.6846,-3.7,-3.7256,-3.728,-3.6951,-3.6948,-3.6946,0,-3.7112,-3.7144,-3.7208,-3.7207,-3.717,-3.7202,-3.7188,-3.7169,-3.718,-3.7185,-3.7191,-3.7203,-3.7209,-3.722,-3.7165,-3.7102,-3.7242,-3.7144,-3.7223,-3.7224,-3.7255,-3.7254,-3.7516,-3.7265,-3.7264,-3.7264,-3.7263,0,-3.7309,-3.7374,-3.7292,-3.7331,-3.7402,-3.7332,-3.7404,-3.738,-3.7365,-3.7398,-3.7319,-3.7353,-3.7278,-3.7305,-3.7262,-3.7326,-3.733,-3.7312,-3.7299,-3.7318,-3.7321,-3.7324,-3.7311,-3.727,-3.7269,-3.7268,-3.7266,0,-3.7529,-3.7476,-3.754,-3.75,-3.7491,-3.7545,-3.751,-3.7546,-3.7511,-3.7555,-3.7561,-3.7507,-3.7534,-3.748,-3.7501,-3.7472,-3.7562,-3.7533,-3.7566,-3.7557,-3.7639,-3.7632,-3.7911,-3.7944,-3.7673,-3.7676,-3.7678,0,-3.7657,-3.7705,-3.767,-3.7686,-3.7676,-3.7704,-3.7714,-3.7647,-3.7661,-3.7649,-3.7687,-3.7707,-3.7719,-3.7767,-3.773,-3.7746,-3.7715,-3.7813,-3.7717,-3.7735,-3.7716,-3.7714,-3.7718,-3.7832,-3.7835,-3.7838,-3.784,0,-3.7891,-3.7862,-3.7879,-3.7888,-3.7902,-3.7906,-3.7904,-3.7922,-3.7851,-3.7871,-3.7897,-3.7907,-3.7927,-3.7949,-3.7955,-3.7942,-3.788,-3.7871,-3.7889,-3.7909,-3.7926,-3.7917,-3.7619,-3.7864,-3.7862,-3.786,-3.7859,-3.7858,-3.8068,-3.8106,-3.8087,-3.8109,-3.81,-3.81,-3.8131,-3.81,-3.812,-3.813,-3.809,-3.8126,-3.8111,-3.8114,-3.8107,-3.8134,-3.8091,-3.8119,-3.8125,-3.8133,-3.8146,-3.7923,-3.8136,-3.8135,-3.8134,-3.8134,-3.8133,0,-3.8297,-3.828,-3.83,-3.8299,-3.8317,-3.8256,-3.8251,-3.827,-3.8302,-3.8293,-3.8307,-3.8338,-3.8358,-3.8323,-3.8338,-3.8367,-3.8339,-3.8373,-3.8369,-3.8367,-3.8184,-3.8166,-3.8395,-3.8395,-3.8395,-3.8395,-3.8395,-3.8395,-3.8417,-3.8478,-3.8448,-3.8504,-3.8487,-3.852,-3.8522,-3.8522,-3.8515,-3.8552,-3.8568,-3.8545,-3.8526,-3.8538,-3.8555,-3.8544,-3.8553,-3.8597,-3.8577,-3.8406,-3.838,-3.8356,-3.8338,-3.86,-3.86,-3.8757,-3.8759,-3.876]},{"header":{"parameterUnit":"m.s-1","parameterCategory":1,"la1":30.2991,"la2":30.254,"lo1":-89.0895,"lo2":-89.0444,"dy":0.0017,"dx":0.0017,"nx":28,"ny":28,"refTime":"2025-12-06T03:00:00:Z","depth":0,"parameterNumber":3,"parameterNumberName":"V-component_of_WINDS"},"data":[0,0,0,0,0,0,0,0,0,0,0,0,0,0,0,0,0,0,0,0,0,0,0,0,0,0,0,0,0,0,0,0,0,0,0,0,0,0,0,0,0,0,0,0,0,0,0,0,0,0,0,0,0,0,0,0,0,0,-1.7569,-1.7569,0,-1.7565,-1.7565,-1.7565,-1.7546,-1.7545,-1.7545,-1.7544,-1.754,-1.754,-1.754,0,0,0,0,0,0,0,0,0,0,0,0,0,-1.7556,-1.7557,-1.7569,-1.7569,-1.7569,-1.7565,-1.7565,-1.7565,-1.7546,-1.7545,-1.7545,-1.7544,-1.754,-1.754,-1.754,0,0,0,0,0,0,0,0,0,0,0,0,0,-1.7558,-1.7557,-1.7569,-1.7559,-1.7558,-1.7565,-1.7565,-1.7565,-1.7546,-1.7545,-1.7544,-1.7544,-1.7539,-1.754,-1.754,-1.7557,0,0,-1.7542,-1.7542,0,0,0,0,0,0,0,0,-1.7558,-1.7559,-1.756,-1.7559,-1.7558,-1.7555,-1.7559,-1.7563,-1.7546,-1.755,-1.7544,-1.7543,-1.7545,-1.7545,-1.7546,-1.7557,-1.7557,-1.7542,-1.7542,-1.7542,-1.7543,0,0,0,0,0,0,0,-1.7558,-1.7559,-1.7567,-1.756,-1.7559,-1.7553,-1.7553,-1.756,-1.7552,-1.755,-1.7548,-1.7548,-1.7545,-1.7546,-1.7546,-1.7557,-1.7542,-1.7542,-1.7543,-1.7543,-1.7579,-1.758,0,0,0,0,0,0,-1.756,-1.7559,-1.7567,-1.7567,-1.7556,-1.7554,-1.7554,-1.7557,-1.7552,-1.755,-1.7549,-1.7547,-1.7545,-1.7545,-1.7546,-1.7564,-1.7542,-1.7543,-1.7543,-1.7579,-1.758,-1.758,0,0,0,0,0,0,-1.7559,-1.7561,-1.7568,-1.7563,-1.7563,-1.7555,-1.7559,-1.7557,-1.7558,-1.7551,-1.7549,-1.7552,-1.7545,-1.7545,-1.7554,-1.7563,-1.7543,-1.7543,-1.7578,-1.7579,-1.758,-1.7601,0,0,0,0,0,0,-1.7559,-1.7561,-1.7568,-1.7563,-1.7563,-1.7577,-1.756,-1.7558,-1.7559,-1.7557,-1.7553,-1.7552,-1.7544,-1.7554,-1.7555,-1.7564,-1.7544,-1.7577,-1.7578,-1.758,-1.7599,-1.7602,-1.7605,0,0,0,0,0,-1.7559,-1.7574,-1.7568,-1.7569,-1.7572,-1.7577,-1.7578,-1.7569,-1.756,-1.7566,-1.7561,-1.7552,-1.7562,-1.7555,-1.7556,-1.7565,-1.7576,-1.7578,-1.7579,-1.7598,-1.7602,-1.7605,0,0,0,0,0,0,-1.758,-1.7573,-1.7567,-1.7581,-1.758,-1.7574,-1.7582,-1.7574,-1.7575,-1.7573,-1.7562,-1.7561,-1.7572,-1.7569,-1.7561,-1.758,-1.7568,-1.7569,-1.7581,-1.7585,-1.7588,-1.7587,-1.7544,0,0,0,0,0,-1.7586,-1.7592,-1.7585,-1.7598,-1.7598,-1.759,-1.7592,-1.7586,-1.7584,-1.7584,-1.7579,-1.7578,-1.758,-1.7583,-1.7585,-1.7599,-1.7597,-1.7605,-1.7608,-1.7611,-1.7612,-1.7617,-1.7621,-1.7585,-1.7585,-1.7585,0,0,-1.7599,-1.7596,-1.76,-1.7602,-1.7601,-1.7606,-1.759,-1.7596,-1.76,-1.7584,-1.7592,-1.7589,-1.7587,-1.7598,-1.7603,-1.7596,-1.7622,-1.7613,-1.7615,-1.7615,-1.7619,-1.7623,-1.7626,-1.7586,-1.7586,-1.7586,0,0,-1.7625,-1.7624,-1.7634,-1.7633,-1.763,-1.7625,-1.7627,-1.7622,-1.762,-1.7628,-1.7616,-1.7619,-1.7625,-1.7623,-1.7623,-1.7646,-1.7637,-1.7647,-1.7662,-1.7667,-1.767,-1.7673,-1.768,-1.7682,-1.7649,-1.7649,-1.7649,0,-1.7642,-1.7649,-1.764,-1.7647,-1.7647,-1.7634,-1.7643,-1.7642,-1.764,-1.764,-1.7633,-1.7639,-1.7636,-1.7646,-1.7651,-1.7652,-1.7653,-1.7647,-1.7671,-1.7673,-1.7675,-1.7681,-1.7684,-1.765,-1.765,-1.765,-1.765,0,-1.7668,-1.7674,-1.7682,-1.768,-1.7682,-1.769,-1.7681,-1.7684,-1.7676,-1.7671,-1.7679,-1.7675,-1.7675,-1.7677,-1.7671,-1.7685,-1.7681,-1.7673,-1.766,-1.768,-1.7685,-1.7688,-1.7652,-1.7651,-1.7651,-1.7651,0,0,-1.7708,-1.77,-1.7703,-1.7702,-1.7698,-1.7701,-1.7708,-1.7708,-1.771,-1.7709,-1.7713,-1.7718,-1.7709,-1.7709,-1.7702,-1.7707,-1.7724,-1.7697,-1.7697,-1.7701,-1.7737,-1.7743,-1.7746,-1.7718,-1.7718,-1.7718,-1.7737,0,-1.7731,-1.7743,-1.7734,-1.7746,-1.775,-1.7737,-1.7742,-1.774,-1.7735,-1.7737,-1.7731,-1.7734,-1.7723,-1.7722,-1.7727,-1.7721,-1.7731,-1.7719,-1.772,-1.772,-1.772,-1.775,-1.7756,-1.7774,-1.774,-1.774,-1.774,0,-1.7761,-1.7761,-1.7773,-1.7767,-1.7768,-1.7773,-1.7772,-1.7774,-1.7771,-1.7767,-1.7766,-1.7757,-1.7762,-1.775,-1.7756,-1.7748,-1.7748,-1.7745,-1.7745,-1.7744,-1.7731,-1.7748,-1.778,-1.7782,-1.7744,-1.7744,-1.7743,0,-1.7786,-1.7789,-1.7797,-1.7796,-1.7789,-1.7793,-1.779,-1.7786,-1.7786,-1.7785,-1.7784,-1.7784,-1.7784,-1.7783,-1.7774,-1.7766,-1.778,-1.7768,-1.7776,-1.7776,-1.7778,-1.7778,-1.7809,-1.778,-1.778,-1.778,-1.778,0,-1.7813,-1.7821,-1.7808,-1.7812,-1.782,-1.781,-1.7818,-1.7813,-1.7809,-1.7812,-1.7801,-1.7803,-1.7792,-1.7793,-1.7785,-1.779,-1.7791,-1.7786,-1.7784,-1.7787,-1.7787,-1.7786,-1.7784,-1.7781,-1.7781,-1.7781,-1.7781,0,-1.7842,-1.7834,-1.7841,-1.7834,-1.7832,-1.7838,-1.7831,-1.7834,-1.7828,-1.7832,-1.7832,-1.7823,-1.7823,-1.7814,-1.7813,-1.7808,-1.7815,-1.7812,-1.7816,-1.7815,-1.7823,-1.7822,-1.7853,-1.7856,-1.7827,-1.7827,-1.7827,0,-1.7859,-1.7865,-1.7858,-1.7858,-1.7856,-1.7858,-1.7858,-1.7848,-1.7848,-1.7843,-1.7847,-1.7846,-1.7845,-1.7847,-1.7839,-1.7838,-1.7833,-1.7844,-1.7833,-1.7834,-1.7831,-1.7831,-1.783,-1.7846,-1.7846,-1.7847,-1.7847,0,-1.7889,-1.7885,-1.7885,-1.7884,-1.7884,-1.7883,-1.788,-1.7882,-1.787,-1.7871,-1.7871,-1.787,-1.7869,-1.7868,-1.7865,-1.7861,-1.7852,-1.7851,-1.7852,-1.7854,-1.7856,-1.7854,-1.7822,-1.785,-1.785,-1.7849,-1.7849,-1.7849,-1.7912,-1.7916,-1.7911,-1.7911,-1.7908,-1.7906,-1.7908,-1.7902,-1.7902,-1.79,-1.7894,-1.7895,-1.789,-1.7885,-1.7882,-1.7881,-1.7876,-1.7879,-1.7879,-1.7879,-1.788,-1.7857,-1.7881,-1.7881,-1.7881,-1.7881,-1.7881,0,-1.794,-1.7936,-1.7937,-1.7934,-1.7934,-1.7925,-1.7922,-1.7922,-1.7923,-1.7919,-1.7918,-1.7918,-1.7916,-1.7909,-1.7906,-1.7908,-1.7903,-1.7907,-1.7906,-1.7905,-1.7886,-1.7884,-1.7911,-1.7911,-1.7911,-1.7911,-1.7911,-1.7911,-1.7955,-1.796,-1.7955,-1.7958,-1.7954,-1.7954,-1.7953,-1.795,-1.7947,-1.7947,-1.7946,-1.7941,-1.7935,-1.7932,-1.793,-1.7927,-1.7926,-1.7932,-1.7928,-1.791,-1.7907,-1.7904,-1.7902,-1.7932,-1.7932,-1.7947,-1.7947,-1.7947]}]]